軌道要素
Epoch 2017 Feb. 16.0 TT = JDT 2457800.5
T 2017 Feb. 15.51681 TT MPCW
q 2.2208720 (2000.0) P Q
n 0.10407757 Peri. 335.90315 +0.17126944 -0.91367674
a 4.4760811 Node 102.51479 +0.95411075 +0.06053791
e 0.5038356 Incl. 22.18293 +0.24564092 +0.40190793
P 9.47
From 461 observations 2007 Oct. 6-2018 Apr. 9, mean residual 0".6.
|